Jackson, MN

5:54 PM CST on November 15, 2019 (GMT -0600)
Jackson Municipal

Weather History for KMJQ - August, 2019

Change the Weather History Date:

Sunday, August 18, 2019

  Actual Average Record
Temperature  
Mean Temperature 64 °F -  
Max Temperature 71 °F 76 °F 91 °F (2003)
Min Temperature 55 °F 56 °F 44 °F (2002)
Degree Days  
Heating Degree Days 1    
Growing Degree Days 14 (Base 50)    
Moisture  
Dew Point 58 °F    
Average Humidity 81    
Maximum Humidity 100    
Minimum Humidity 60    
Precipitation  
Precipitation 0.34 in - - ()
Sea Level Pressure  
Sea Level Pressure 29.86 in    
Wind  
Wind Speed 10 mph (NW)    
Max Wind Speed 23 mph    
Max Gust Speed 37 mph    
Visibility 10 miles    
Events Thunderstorm    
Averages and records for this station are not official NWS values.
T = Trace of Precipitation, MM = Missing Value Source: NWS Daily Summary

Daily Weather History Graph

Daily Weather History Graph

Search for Another Location

Airport or City:

Astronomy

Aug. 18, 2019 Rise Set
Actual Time 6:27 AM CDT 8:19 PM CDT
Civil Twilight 5:56 AM CDT 8:49 PM CDT
Nautical Twilight 5:19 AM CDT 9:27 PM CDT
Astronomical Twilight 4:38 AM CDT 10:07 PM CDT
Moon 10:09 PM CDT (8/18) 9:17 AM CDT (8/18)
Length of Visible Light 14h 52m
Length of Day
13h 51m
Waning Gibbous, 91% of the Moon is Illuminated
Aug 18
Waning Gibbous
Aug 23
Last Quarter
Aug 30
New
Sep 5
First Quarter
Sep 13
Full

Hourly Weather History & Observations

Time (CDT) Temp. Dew Point Humidity Pressure Visibility Wind Dir Wind Speed Gust Speed Precip Events Conditions
12:15 AM 60.8 °F 60.8 °F 100% 29.74 in 5.0 mi WSW 17.3 mph 24.2 mph 0.09 in Thunderstorm Thunderstorm
12:35 AM 60.8 °F 60.8 °F 100% 29.73 in 7.0 mi West 17.3 mph 28.8 mph 0.17 in Thunderstorm Thunderstorm
12:55 AM 60.8 °F 60.8 °F 100% 29.70 in 4.0 mi WNW 19.6 mph 25.3 mph 0.23 in   Overcast
1:15 AM 60.8 °F 60.8 °F 100% 29.73 in 5.0 mi NW 21.9 mph 33.4 mph 0.06 in Thunderstorm Thunderstorm
1:35 AM 62.6 °F 60.8 °F 94% 29.62 in 7.0 mi North 23.0 mph 36.8 mph 0.11 in Thunderstorm Mostly Cloudy
1:55 AM 62.6 °F 59.0 °F 88% 29.69 in 10.0 mi NNW 10.4 mph 21.9 mph 0.11 in   Scattered Clouds
1:56 AM 62.6 °F 59.0 °F 88% 29.69 in 10.0 mi NNW 8.1 mph 21.9 mph N/A Thunderstorm Scattered Clouds
2:15 AM 62.6 °F 59.0 °F 88% 29.70 in 10.0 mi Calm Calm - N/A   Clear
2:35 AM 62.6 °F 59.0 °F 88% 29.72 in 10.0 mi Calm Calm - N/A   Scattered Clouds
2:55 AM 62.6 °F 59.0 °F 88% 29.75 in 10.0 mi SW 9.2 mph - N/A   Mostly Cloudy
3:15 AM 62.6 °F 59.0 °F 88% 29.77 in 10.0 mi SW 11.5 mph - N/A   Mostly Cloudy
3:35 AM 62.6 °F 59.0 °F 88% 29.76 in 10.0 mi WSW 6.9 mph - N/A   Clear
3:56 AM 62.6 °F 59.0 °F 88% 29.75 in 10.0 mi Calm Calm - N/A   Scattered Clouds
4:15 AM 60.8 °F 59.0 °F 94% 29.75 in 10.0 mi WNW 5.8 mph - N/A   Clear
4:35 AM 60.8 °F 59.0 °F 94% 29.75 in 10.0 mi NW 5.8 mph - N/A   Clear
4:55 AM 60.8 °F 59.0 °F 94% 29.73 in 10.0 mi WNW 6.9 mph - N/A   Clear
5:15 AM 60.8 °F 59.0 °F 94% 29.71 in 10.0 mi WNW 5.8 mph - N/A   Clear
5:35 AM 60.8 °F 59.0 °F 94% 29.73 in 10.0 mi WNW 8.1 mph - N/A   Clear
5:55 AM 60.8 °F 59.0 °F 94% 29.74 in 10.0 mi WNW 10.4 mph - N/A   Clear
6:15 AM 60.8 °F 59.0 °F 94% 29.76 in 10.0 mi WNW 9.2 mph - N/A   Scattered Clouds
6:35 AM 60.8 °F 59.0 °F 94% 29.78 in 10.0 mi WNW 6.9 mph - N/A   Mostly Cloudy
6:55 AM 60.8 °F 59.0 °F 94% 29.82 in 10.0 mi WNW 5.8 mph - N/A   Overcast
7:15 AM 60.8 °F 59.0 °F 94% 29.83 in 10.0 mi West 4.6 mph - N/A   Mostly Cloudy
7:35 AM 60.8 °F 59.0 °F 94% 29.83 in 10.0 mi NW 9.2 mph - N/A   Mostly Cloudy
7:55 AM 60.8 °F 59.0 °F 94% 29.83 in 10.0 mi NW 9.2 mph - N/A   Overcast
8:15 AM 60.8 °F 59.0 °F 94% 29.85 in 10.0 mi NNW 12.7 mph 18.4 mph N/A   Overcast
8:35 AM 60.8 °F 57.2 °F 88% 29.88 in 10.0 mi NNW 8.1 mph - N/A   Mostly Cloudy
8:55 AM 62.6 °F 55.4 °F 77% 29.91 in 10.0 mi NNW 5.8 mph - N/A   Mostly Cloudy
9:15 AM 62.6 °F 55.4 °F 77% 29.91 in 10.0 mi North 3.5 mph - N/A   Overcast
9:35 AM 62.6 °F 55.4 °F 77% 29.91 in 10.0 mi West 3.5 mph - N/A   Overcast
9:55 AM 62.6 °F 55.4 °F 77% 29.91 in 10.0 mi Calm Calm - N/A   Mostly Cloudy
10:15 AM 64.4 °F 57.2 °F 77% 29.91 in 10.0 mi Calm Calm - N/A   Scattered Clouds
10:35 AM 64.4 °F 59.0 °F 83% 29.91 in 10.0 mi WNW 6.9 mph - N/A   Scattered Clouds
10:55 AM 66.2 °F 59.0 °F 78% 29.91 in 10.0 mi West 6.9 mph - N/A   Scattered Clouds
11:15 AM 68.0 °F 59.0 °F 73% 29.91 in 10.0 mi West 6.9 mph - N/A   Scattered Clouds
11:35 AM 68.0 °F 59.0 °F 73% 29.91 in 10.0 mi NW 10.4 mph - N/A   Scattered Clouds
11:55 AM 68.0 °F 59.0 °F 73% 29.90 in 10.0 mi WNW 6.9 mph - N/A   Mostly Cloudy
12:15 PM 68.0 °F 59.0 °F 73% 29.91 in 10.0 mi WNW 11.5 mph - N/A   Mostly Cloudy
12:35 PM 68.0 °F 59.0 °F 73% 29.92 in 10.0 mi West 10.4 mph - N/A   Overcast
12:55 PM 68.0 °F 59.0 °F 73% 29.92 in 10.0 mi WNW 11.5 mph - N/A   Mostly Cloudy
1:15 PM 68.0 °F 59.0 °F 73% 29.92 in 10.0 mi NW 11.5 mph - N/A   Overcast
1:35 PM 69.8 °F 59.0 °F 68% 29.93 in 10.0 mi NW 11.5 mph 18.4 mph N/A   Overcast
1:55 PM 69.8 °F 59.0 °F 68% 29.93 in 10.0 mi WNW 13.8 mph - N/A   Overcast
2:15 PM 69.8 °F 59.0 °F 68% 29.92 in 10.0 mi West 13.8 mph - N/A   Scattered Clouds
2:35 PM 69.8 °F 57.2 °F 64% 29.91 in 10.0 mi NW 13.8 mph 18.4 mph N/A   Scattered Clouds
2:55 PM 69.8 °F 57.2 °F 64% 29.91 in 10.0 mi WNW 15.0 mph - N/A   Clear
3:15 PM 69.8 °F 55.4 °F 60% 29.91 in 10.0 mi NW 11.5 mph 18.4 mph N/A   Clear
3:35 PM 69.8 °F 57.2 °F 64% 29.91 in 10.0 mi NW 11.5 mph 16.1 mph N/A   Clear
3:55 PM 71.6 °F 59.0 °F 64% 29.90 in 10.0 mi NW 11.5 mph 16.1 mph N/A   Clear
4:15 PM 69.8 °F 57.2 °F 64% 29.91 in 10.0 mi NNW 10.4 mph 18.4 mph N/A   Clear
4:35 PM 69.8 °F 57.2 °F 64% 29.90 in 10.0 mi NNW 10.4 mph - N/A   Clear
4:55 PM 69.8 °F 55.4 °F 60% 29.91 in 10.0 mi NNW 9.2 mph 17.3 mph N/A   Clear
5:15 PM 69.8 °F 55.4 °F 60% 29.91 in 10.0 mi NNW 6.9 mph - N/A   Clear
5:35 PM 69.8 °F 55.4 °F 60% 29.91 in 10.0 mi NNW 6.9 mph - N/A   Clear
5:55 PM 69.8 °F 55.4 °F 60% 29.91 in 10.0 mi North 3.5 mph - N/A   Clear
6:15 PM 69.8 °F 55.4 °F 60% 29.91 in 10.0 mi North 4.6 mph - N/A   Clear
6:35 PM 69.8 °F 55.4 °F 60% 29.91 in 10.0 mi NNE 6.9 mph - N/A   Clear
6:55 PM 68.0 °F 55.4 °F 64% 29.92 in 10.0 mi NNE 3.5 mph - N/A   Clear
7:15 PM 68.0 °F 55.4 °F 64% 29.92 in 10.0 mi Calm Calm - N/A   Clear
7:35 PM 66.2 °F 57.2 °F 73% 29.92 in 10.0 mi Calm Calm - N/A   Clear
7:55 PM 64.4 °F 59.0 °F 83% 29.94 in 10.0 mi Calm Calm - N/A   Clear
7:56 PM 64.4 °F 59.0 °F 83% 29.94 in 10.0 mi Calm Calm - N/A   Clear
8:15 PM 62.6 °F 57.2 °F 82% 29.94 in 10.0 mi NE 4.6 mph - N/A   Clear
8:35 PM 60.8 °F 55.4 °F 82% 29.94 in 10.0 mi ENE 4.6 mph - N/A   Clear
8:55 PM 60.8 °F 55.4 °F 82% 29.94 in 10.0 mi ENE 3.5 mph - N/A   Clear
9:15 PM 59.0 °F 53.6 °F 82% 29.95 in 10.0 mi Calm Calm - N/A   Clear
9:35 PM 59.0 °F 53.6 °F 82% 29.96 in 10.0 mi Calm Calm - N/A   Clear
9:55 PM 59.0 °F 53.6 °F 82% 29.96 in 10.0 mi Calm Calm - N/A   Clear
10:15 PM 59.0 °F 53.6 °F 82% 29.97 in 10.0 mi Calm Calm - N/A   Clear
10:35 PM 57.2 °F 53.6 °F 88% 29.97 in 10.0 mi Calm Calm - N/A   Clear
10:55 PM 57.2 °F 55.4 °F 94% 29.98 in 10.0 mi Calm Calm - N/A   Clear
11:15 PM 57.2 °F 53.6 °F 88% 29.98 in 10.0 mi Calm Calm - N/A   Clear
11:35 PM 57.2 °F 53.6 °F 88% 29.98 in 10.0 mi Calm Calm - N/A   Clear
11:55 PM 55.4 °F 53.6 °F 94% 29.98 in 10.0 mi Calm Calm - N/A   Clear